Etusivu
METAR-TAF:

METAR-TAF

Lentoasemat :

Waskish Municipal Airport

Waskish, Minnesota, Yhdysvallat

Leveyspiiri: 48-09-15N, Pituuspiiri: 094-31-01W, korkeus merenpinnasta: 360 m

Tämänhetkinen sää

Tämä raportti tehtiin 30 minuuttia sitten, kello 06.35 UTC
Tuuli 3 kn pohjoisesta/koillisesta
Lämpötila -9°C
Kosteus 73%
Ilmanpaine 1016 hPa
Näkyvyys: 16.1 km
Pilvistä 2800 ft:n korkeudessa

METAR: KVWU 280635Z AUTO 02003KT 10SM OVC028 M09/M13 A3001 RMK AO2

Aika: 01:05 (07:05 UTC)


TAF: puuttuu

Säähavainnot ja -ennusteet yli 4000 lentoasemalta (METAR- ja TAF-raportit).

Käytössä olevat sääasemat on merkitty karttaan keltaisilla ja punaisilla pisteillä.

Aseta hiiri pisteen päälle nähdäksesi sääaseman nimen.

Klikkaa sitten nähdäksesi säähavainnot ja -ennusteet.

Kartan vaihtaminen: klikkaa mustalla rastilla varustettuja vihreitä pisteitä, niin voit zoomata sisään; viivalla varustettua vihreää pistettä, niin voit zoomata ulos tai vihreitä nuolia, niin pääset viereisille kartoille.


METAR-TAF: